This demonstration page uses our WeatherBlox Daily Observations layout. Learn more.

Left ArrowRight Arrow

47.50024, -111.30081

Hourly Observations for May 17, 2019

Temp ( °F °C ) Dew Point ( °F °C ) Humidity (%) Winds ( mph kmh ) Pressure ( in mb ) Visibility ( mi km ) Precip ( " mm )
12:21 am 00:21 Cloudy 46 7.8 44 6.7 93 93 E 17 28 29.73 1007 10 16 0.00 0.03
12:53 am 00:53 Cloudy 46 7.8 45 7.2 96 96 E 16 26 29.72 1007 10 16 0.00 0.03
1:09 am 01:09 Cloudy 46 7.8 44 6.7 93 93 E 15 24 29.71 1006 10 16 0.00 0.00
1:23 am 01:23 Cloudy with Light Rain 46 7.8 44 6.7 93 93 E 14 22 29.71 1006 10 16 0.00 0.03
1:53 am 01:53 Cloudy with Light Rain 45 7.2 45 7.2 100 100 E 15 24 29.71 1006 10 16 0.00 0.03
2:07 am 02:07 Cloudy with Light Rain 45 7.2 45 7.2 100 100 E 13 20 29.71 1006 10 16 0.00 0.03
2:35 am 02:35 Cloudy 45 7.2 45 7.2 100 100 E 12 19 29.71 1006 10 16 0.00 0.03
2:53 am 02:53 Cloudy 44 6.7 44 6.7 100 100 ENE 12 19 29.70 1006 9 14 0.00 0.03
3:04 am 03:04 Cloudy 44 6.7 44 6.7 100 100 ENE 12 19 29.69 1006 9 14 0.00 0.00
3:53 am 03:53 Cloudy 44 6.7 44 6.7 100 100 NE 8 13 29.68 1005 10 16 0.00 0.03
4:43 am 04:43 Cloudy 44 6.7 44 6.7 100 100 NE 7 11 29.68 1005 10 16 0.00 0.00
4:53 am 04:53 Cloudy with Light Rain 44 6.7 44 6.7 100 100 NNE 3 6 29.69 1006 10 16 0.00 0.03
5:19 am 05:19 Cloudy with Light Rain 43 6.1 43 6.1 100 100 NNE 8 13 29.69 1005 8 13 0.00 0.03
5:27 am 05:27 Cloudy with Light Rain 43 6.1 43 6.1 100 100 NNE 8 13 29.69 1005 7 11 0.00 0.03
5:39 am 05:39 Cloudy with Light Rain 43 6.1 43 6.1 100 100 NNE 8 13 29.68 1005 7 11 0.00 0.03
5:53 am 05:53 Cloudy with Light Rain 43 6.1 43 6.1 100 100 NNE 9 15 29.68 1005 8 13 0.00 0.03
6:44 am 06:44 Cloudy with Light Rain 43 6.1 43 6.1 100 100 NNE 9 15 29.69 1005 8 13 0.01 0.25
6:53 am 06:53 Cloudy with Light Rain 43 6.1 43 6.1 100 100 NNE 8 13 29.69 1005 8 13 0.01 0.25
7:40 am 07:40 Cloudy with Light Rain 43 6.1 43 6.1 100 100 N 9 15 29.68 1005 2 2 0.00 0.03
7:53 am 07:53 Cloudy with Light Rain 43 6.1 43 6.1 100 100 N 8 13 29.70 1006 2 2 0.01 0.25
8:00 am 08:00 Cloudy with Light Rain 43 6.1 43 6.1 100 100 N 9 15 29.69 1005 2 2 0.00 0.03
8:12 am 08:12 Cloudy with Light Rain 43 6.1 43 6.1 100 100 NNE 12 19 29.69 1005 6 10 0.00 0.03
8:53 am 08:53 Cloudy with Light Rain 43 6.1 43 6.1 100 100 NNE 13 20 29.70 1006 10 16 0.01 0.25
9:53 am 09:53 Cloudy with Light Rain 43 6.1 43 6.1 100 100 NNE 12 19 29.71 1006 4 6 0.00 0.03
10:10 am 10:10 Cloudy with Light Rain 43 6.1 43 6.1 100 100 NNE 10 17 29.70 1006 3 4 0.02 0.51
10:29 am 10:29 Cloudy with Light Rain 43 6.1 43 6.1 100 100 NNE 12 19 29.70 1006 3 5 0.04 1.02
10:40 am 10:40 Cloudy with Light Rain 43 6.1 43 6.1 100 100 NNE 10 17 29.70 1006 3 4 0.04 1.02
10:53 am 10:53 Cloudy with Light Rain 43 6.1 43 6.1 100 100 N 12 19 29.72 1006 3 4 0.05 1.27
11:53 am 11:53 Cloudy with Light Rain 44 6.7 44 6.7 100 100 N 15 24 29.72 1006 3 5 0.04 1.02
12:26 pm 12:26 Cloudy with Light Rain 44 6.7 44 6.7 100 100 N 15 24 29.70 1006 3 5 0.01 0.25
12:53 pm 12:53 Cloudy with Light Rain 44 6.7 44 6.7 100 100 N 13 20 29.72 1007 7 11 0.02 0.51
1:53 pm 13:53 Cloudy with Light Rain 44 6.7 44 6.7 100 100 N 14 22 29.73 1007 8 13 0.02 0.51
2:30 pm 14:30 Cloudy with Light Rain 44 6.7 44 6.7 100 100 N 13 20 29.72 1007 3 5 0.02 0.51
2:53 pm 14:53 Cloudy with Light Rain 45 7.2 44 6.7 97 97 N 13 20 29.75 1007 8 13 0.03 0.76
3:16 pm 15:16 Cloudy with Light Rain 45 7.2 44 6.7 97 97 NNE 10 17 29.73 1007 10 16 0.00 0.03
3:32 pm 15:32 Cloudy with Light Rain 45 7.2 45 7.2 100 100 N 12 19 29.74 1007 9 14 0.01 0.25
3:43 pm 15:43 Cloudy with Light Rain 45 7.2 45 7.2 100 100 NNE 13 20 29.74 1007 10 16 0.01 0.25
3:53 pm 15:53 Cloudy with Light Rain 45 7.2 44 6.7 97 97 NNE 10 17 29.76 1008 9 14 0.01 0.25
4:00 pm 16:00 Cloudy with Light Rain 44 6.7 44 6.7 100 100 NE 12 19 29.74 1007 7 11 0.01 0.25
4:53 pm 16:53 Cloudy with Light Rain 43 6.1 43 6.1 100 100 NE 12 19 29.79 1009 5 8 0.04 1.02
5:02 pm 17:02 Cloudy with Light Rain 43 6.1 43 6.1 100 100 NNE 9 15 29.77 1008 5 8 0.00 0.03
5:11 pm 17:11 Cloudy with Light Rain 43 6.1 43 6.1 100 100 NNE 10 17 29.77 1008 4 6 0.01 0.25
5:21 pm 17:21 Cloudy with Light Rain 43 6.1 43 6.1 100 100 NNE 9 15 29.78 1009 5 8 0.02 0.51
5:39 pm 17:39 Cloudy with Light Rain 43 6.1 43 6.1 100 100 NE 8 13 29.78 1009 7 11 0.03 0.76
5:46 pm 17:46 Cloudy with Light Rain 43 6.1 43 6.1 100 100 NNE 8 13 29.78 1009 7 11 0.04 1.02
5:53 pm 17:53 Cloudy with Light Rain 43 6.1 43 6.1 100 100 NNE 8 13 29.82 1010 6 10 0.04 1.02
5:58 pm 17:58 Cloudy with Light Rain 43 6.1 43 6.1 100 100 NE 10 17 29.79 1009 6 10 0.00 0.03
6:53 pm 18:53 Cloudy with Light Rain 42 5.6 42 5.6 100 100 NNE 9 15 29.83 1010 9 14 0.05 1.27
7:06 pm 19:06 Cloudy with Light Rain 42 5.6 42 5.6 100 100 NNE 9 15 29.81 1009 9 14 0.00 0.03
7:53 pm 19:53 Cloudy with Light Rain 41 5 41 5 100 100 NE 9 15 29.85 1011 10 16 0.01 0.25
8:23 pm 20:23 Cloudy with Light Rain 40 4.4 40 4.4 100 100 NE 12 19 29.86 1011 6 10 0.01 0.25
8:33 pm 20:33 Cloudy with Light Rain 40 4.4 40 4.4 100 100 NE 12 19 29.86 1011 3 5 0.02 0.51
8:42 pm 20:42 Cloudy with Light Rain 40 4.4 40 4.4 100 100 NNE 10 17 29.86 1011 3 5 0.03 0.76
8:53 pm 20:53 Cloudy with Light Rain 39 3.9 39 3.9 100 100 NE 9 15 29.87 1012 5 8 0.04 1.02
9:53 pm 21:53 Cloudy with Light Rain 38 3.3 38 3.3 100 100 NE 10 17 29.89 1012 10 16 0.02 0.51
10:53 pm 22:53 Cloudy with Light Rain 38 3.3 38 3.3 100 100 NE 12 19 29.90 1013 9 14 0.03 0.76
11:24 pm 23:24 Cloudy with Light Rain 38 3.3 38 3.3 100 100 NE 9 15 29.90 1013 10 16 0.02 0.51
11:53 pm 23:53 Cloudy with Light Rain 38 3.3 38 3.3 100 100 NE 8 13 29.91 1013 10 16 0.03 0.76

Powered by AerisWeather